LZKZLZTT

Guest
Details From LZKZ - KOSICE
To LZTT - POPRAD TATRY
Flight Number -
Tags generated
Created
Modified
Stats Distance 47 nm / 86 km
Max Altitude 4,400 ft / 1,341 m
Waypoints 3
Social Downloads 2
Likes 0
Share VATSIM

Download

Looking for another format? Having issues loading an existing format? Contact us
Advertisement - Login to hide

Notes

Basic altitude profile: - Ascent Rate: 2500ft/min - Ascent Speed: 250kts - Cruise Altitude: 10000ft - Cruise Speed: 420kts - Descent Rate: 1500ft/min - Descent Speed: 250kts Options: - Use NATs: yes - Use PACOTS: yes - Use low airways: yes - Use high airways: no

Route

LZKZ MARKA LZTT

ID Type Via Altitude Latitude Longitude Leg Dist Tot Dist Heading (true) Name
O LZKZ APT - 0 ft / 0 m 48.66303˚ 21.24115˚ - 0 nm - KOSICE
MARKA FIX - 4,400 ft / 1,341 m 48.90214˚ 20.69364˚ 25 nm 25 nm 304° / 303° -
O LZTT APT - 0 ft / 0 m 49.07216˚ 20.24126˚ 20 nm 46 nm 300° / 300° POPRAD TATRY

Altitude Profile

Advertisement - Login to hide

LZKZ

Details ICAO LZKZ (KSC)
Name KOSICE
Region Slovakia
Timezone Europe/Bratislava (UTC+1.0)
Stats Elevation 755 ft / 230 m (AMSL)
Location 48.663030° 21.241155°
Runways 1
Magnetic Variation 5.332° E

METAR

LZKZ 161430Z VRB02KT CAVOK 01/00 Q1006 NOSIG

Decode

TAF

Not found

Departure Runways

ID Width Length Bearing (true) Bearing (mag) Surface Threshold Offset Overrun Length
01 148 ft / 45 m 10,174 ft / 3,101 m 13.00° 7.67° Asphalt 0 ft / 0 m 0 ft / 0 m
19 148 ft / 45 m 10,174 ft / 3,101 m 193.00° 187.67° Asphalt 0 ft / 0 m 0 ft / 0 m

LZTT

Details ICAO LZTT (TAT)
Name POPRAD TATRY
Region Slovakia
Timezone Europe/Bratislava (UTC+1.0)
Stats Elevation 2,355 ft / 718 m (AMSL)
Location 49.072159° 20.241258°
Runways 2
Magnetic Variation 5.171° E

METAR

LZTT 161430Z 27013KT 9999 FEW011 M01/M05 Q1004 NOSIG

Decode

TAF

Not found

Destination Runways

ID Width Length Bearing (true) Bearing (mag) Surface Threshold Offset Overrun Length
07 269 ft / 82 m 2,492 ft / 760 m 73.54° 68.37° Grass 0 ft / 0 m 0 ft / 0 m
09 148 ft / 45 m 8,478 ft / 2,584 m 94.19° 89.02° Concrete 0 ft / 0 m 0 ft / 0 m
25 269 ft / 82 m 2,492 ft / 760 m 253.55° 248.38° Grass 0 ft / 0 m 0 ft / 0 m
27 148 ft / 45 m 8,478 ft / 2,584 m 274.21° 269.04° Concrete 0 ft / 0 m 0 ft / 0 m

Approach Navaids

Runway Type Ident Frequency Range Bearing (true) Bearing (mag) Slope Elevation
27 Localiser TT 110.10 MHz 18 nm / 33 km 274.21° 269.04° - 2,279 ft / 695 m (AMSL)
27 Glidescope TT 110.10 MHz 10 nm / 19 km 274.20° 269.03° 3.50° 2,279 ft / 695 m (AMSL)

Popular Alternatives